Previsão horária em Almaly

Hoje, 16 Junho, Quarta-feira

Tempo Temperatura Precipitação Vento Pressão Humidade
00:00 +25°C° 0 mm 0 m/s 759 mmHg 50%
01:00 +26°C° 0 mm 1 m/s 759 mmHg 49%
02:00 +26°C° 0 mm 1 m/s 759 mmHg 48%
03:00 +26°C° 0 mm 2 m/s 759 mmHg 47%
04:00 +27°C° 0 mm 2 m/s 759 mmHg 42%
05:00 +28°C° 0 mm 3 m/s 760 mmHg 37%
06:00 +30°C° 0 mm 3 m/s 760 mmHg 32%
07:00 +31°C° 0 mm 3 m/s 760 mmHg 27%
08:00 +34°C° 0 mm 3 m/s 759 mmHg 23%
09:00 +36°C° 0 mm 4 m/s 759 mmHg 18%
10:00 +37°C° 0 mm 5 m/s 759 mmHg 18%
11:00 +39°C° 0 mm 6 m/s 759 mmHg 18%
12:00 +40°C° 0 mm 7 m/s 759 mmHg 18%
13:00 +40°C° 0 mm 7 m/s 759 mmHg 19%
14:00 +40°C° 0 mm 7 m/s 759 mmHg 20%
15:00 +39°C° 0 mm 6 m/s 758 mmHg 21%
16:00 +38°C° 0 mm 6 m/s 758 mmHg 22%
17:00 +37°C° 0 mm 5 m/s 758 mmHg 24%
18:00 +36°C° 0 mm 4 m/s 758 mmHg 25%
19:00 +34°C° 0 mm 4 m/s 759 mmHg 30%
20:00 +33°C° 0 mm 4 m/s 759 mmHg 35%
21:00 +31°C° 0 mm 3 m/s 759 mmHg 40%
22:00 +30°C° 0 mm 3 m/s 759 mmHg 41%
23:00 +30°C° 0 mm 3 m/s 759 mmHg 41%

Amanhã, 17 Junho, Quinta-feira

Tempo Temperatura Precipitação Vento Pressão Humidade
00:00 +30°C° 0 mm 3 m/s 759 mmHg 41%
01:00 +30°C° 0 mm 3 m/s 759 mmHg 41%
02:00 +29°C° 0 mm 4 m/s 759 mmHg 41%
03:00 +29°C° 0 mm 4 m/s 759 mmHg 41%
04:00 +29°C° 0 mm 4 m/s 759 mmHg 41%
05:00 +30°C° 0 mm 5 m/s 759 mmHg 40%
06:00 +32°C° 0 mm 5 m/s 759 mmHg 40%
07:00 +34°C° 0 mm 5 m/s 759 mmHg 35%
08:00 +35°C° 0 mm 4 m/s 759 mmHg 30%
09:00 +37°C° 0 mm 4 m/s 759 mmHg 26%
10:00 +38°C° 0 mm 3 m/s 759 mmHg 23%
11:00 +39°C° 0 mm 2 m/s 759 mmHg 20%
12:00 +40°C° 0 mm 1 m/s 759 mmHg 18%
13:00 +40°C° 0 mm 2 m/s 759 mmHg 17%
14:00 +41°C° 0 mm 2 m/s 759 mmHg 16%
15:00 +42°C° 0 mm 3 m/s 758 mmHg 16%
16:00 +42°C° 0 mm 4 m/s 758 mmHg 16%
17:00 +41°C° 0 mm 4 m/s 759 mmHg 17%
18:00 +41°C° 0 mm 5 m/s 759 mmHg 18%
19:00 +39°C° 0 mm 5 m/s 759 mmHg 20%
20:00 +38°C° 0 mm 6 m/s 759 mmHg 22%
21:00 +36°C° 0 mm 7 m/s 760 mmHg 24%
22:00 +35°C° 0 mm 7 m/s 760 mmHg 29%
23:00 +34°C° 0 mm 7 m/s 760 mmHg 33%

Depois de amanhã, 18 Junho, Sexta-feira

Tempo Temperatura Precipitação Vento Pressão Humidade
00:00 +33°C° 0 mm 8 m/s 760 mmHg 38%
01:00 +31°C° 0 mm 8 m/s 760 mmHg 44%
02:00 +29°C° 0 mm 8 m/s 761 mmHg 51%
03:00 +27°C° 0 mm 8 m/s 761 mmHg 57%
04:00 +27°C° 0 mm 8 m/s 762 mmHg 57%
05:00 +27°C° 0 mm 7 m/s 762 mmHg 56%
06:00 +27°C° 0 mm 7 m/s 762 mmHg 56%
07:00 +28°C° 0 mm 7 m/s 762 mmHg 49%
08:00 +29°C° 0 mm 7 m/s 763 mmHg 43%
09:00 +30°C° 0 mm 7 m/s 763 mmHg 37%
10:00 +32°C° 0 mm 7 m/s 763 mmHg 31%
11:00 +33°C° 0 mm 8 m/s 763 mmHg 25%
12:00 +34°C° 0 mm 8 m/s 763 mmHg 19%
13:00 +34°C° 0 mm 8 m/s 763 mmHg 19%
14:00 +34°C° 0 mm 8 m/s 763 mmHg 18%
15:00 +34°C° 0 mm 8 m/s 763 mmHg 18%
16:00 +34°C° 0 mm 8 m/s 763 mmHg 18%
17:00 +33°C° 0 mm 8 m/s 763 mmHg 18%
18:00 +32°C° 0 mm 8 m/s 763 mmHg 18%
19:00 +31°C° 0 mm 8 m/s 764 mmHg 20%
20:00 +29°C° 0 mm 9 m/s 764 mmHg 22%
21:00 +28°C° 0 mm 9 m/s 765 mmHg 23%
22:00 +27°C° 0 mm 8 m/s 765 mmHg 26%
23:00 +26°C° 0 mm 8 m/s 765 mmHg 29%

19 Junho, Sábado

Tempo Temperatura Precipitação Vento Pressão Humidade
00:00 +24°C° 0 mm 8 m/s 766 mmHg 31%
01:00 +23°C° 0 mm 7 m/s 766 mmHg 34%
02:00 +23°C° 0 mm 7 m/s 766 mmHg 36%
03:00 +22°C° 0 mm 7 m/s 767 mmHg 39%
04:00 +22°C° 0 mm 7 m/s 767 mmHg 37%
05:00 +22°C° 0 mm 8 m/s 768 mmHg 36%
06:00 +22°C° 0 mm 8 m/s 768 mmHg 34%
07:00 +23°C° 0 mm 8 m/s 768 mmHg 31%
08:00 +24°C° 0 mm 8 m/s 768 mmHg 28%
09:00 +26°C° 0 mm 7 m/s 768 mmHg 24%
10:00 +28°C° 0 mm 7 m/s 768 mmHg 22%
11:00 +29°C° 0 mm 7 m/s 768 mmHg 21%
12:00 +30°C° 0 mm 7 m/s 767 mmHg 19%
13:00 +32°C° 0 mm 7 m/s 767 mmHg 18%
14:00 +33°C° 0 mm 7 m/s 767 mmHg 17%
15:00 +34°C° 0 mm 7 m/s 767 mmHg 16%
16:00 +33°C° 0 mm 7 m/s 767 mmHg 16%
17:00 +33°C° 0 mm 7 m/s 766 mmHg 17%
18:00 +32°C° 0 mm 8 m/s 766 mmHg 17%
19:00 +30°C° 0 mm 7 m/s 767 mmHg 18%
20:00 +29°C° 0 mm 7 m/s 767 mmHg 19%
21:00 +28°C° 0 mm 7 m/s 767 mmHg 21%
22:00 +27°C° 0 mm 7 m/s 767 mmHg 23%
23:00 +26°C° 0 mm 7 m/s 768 mmHg 25%

20 Junho, Domingo

Tempo Temperatura Precipitação Vento Pressão Humidade
00:00 +24°C° 0 mm 6 m/s 768 mmHg 28%
01:00 +24°C° 0 mm 6 m/s 768 mmHg 30%
02:00 +23°C° 0 mm 5 m/s 768 mmHg 33%
03:00 +22°C° 0 mm 4 m/s 768 mmHg 36%
04:00 +23°C° 0 mm 4 m/s 768 mmHg 36%
05:00 +25°C° 0 mm 5 m/s 769 mmHg 36%
06:00 +25°C° 0 mm 5 m/s 769 mmHg 35%
07:00 +27°C° 0 mm 5 m/s 769 mmHg 33%
08:00 +28°C° 0 mm 4 m/s 768 mmHg 31%
09:00 +29°C° 0 mm 4 m/s 768 mmHg 29%
10:00 +30°C° 0 mm 4 m/s 768 mmHg 27%
11:00 +32°C° 0 mm 4 m/s 768 mmHg 25%
12:00 +33°C° 0 mm 4 m/s 767 mmHg 23%
13:00 +34°C° 0 mm 4 m/s 767 mmHg 22%
14:00 +35°C° 0 mm 4 m/s 766 mmHg 21%
15:00 +35°C° 0 mm 4 m/s 766 mmHg 20%
16:00 +35°C° 0 mm 4 m/s 766 mmHg 21%
17:00 +35°C° 0 mm 4 m/s 766 mmHg 21%
18:00 +35°C° 0 mm 4 m/s 766 mmHg 22%
19:00 +34°C° 0 mm 4 m/s 766 mmHg 24%
20:00 +33°C° 0 mm 3 m/s 766 mmHg 27%
21:00 +31°C° 0 mm 3 m/s 766 mmHg 29%
22:00 +30°C° 0 mm 3 m/s 766 mmHg 31%
23:00 +30°C° 0 mm 3 m/s 766 mmHg 33%

21 Junho, Segunda-feira

Tempo Temperatura Precipitação Vento Pressão Humidade
00:00 +29°C° 0 mm 3 m/s 765 mmHg 35%
01:00 +29°C° 0 mm 3 m/s 765 mmHg 37%
02:00 +28°C° 0 mm 3 m/s 766 mmHg 39%
03:00 +28°C° 0 mm 3 m/s 766 mmHg 42%
04:00 +29°C° 0 mm 3 m/s 766 mmHg 41%
05:00 +30°C° 0 mm 4 m/s 766 mmHg 40%
06:00 +30°C° 0 mm 4 m/s 766 mmHg 39%
07:00 +33°C° 0 mm 4 m/s 766 mmHg 37%
08:00 +34°C° 0 mm 4 m/s 766 mmHg 34%
09:00 +35°C° 0 mm 4 m/s 766 mmHg 32%
10:00 +36°C° 0 mm 4 m/s 765 mmHg 30%
11:00 +36°C° 0 mm 4 m/s 765 mmHg 28%
12:00 +37°C° 0 mm 3 m/s 765 mmHg 26%
13:00 +38°C° 0 mm 3 m/s 764 mmHg 26%
14:00 +38°C° 0 mm 3 m/s 764 mmHg 25%
15:00 +38°C° 0 mm 3 m/s 764 mmHg 25%
16:00 +38°C° 0 mm 3 m/s 764 mmHg 25%
17:00 +38°C° 0 mm 3 m/s 763 mmHg 25%
18:00 +37°C° 0 mm 4 m/s 763 mmHg 26%
19:00 +36°C° 0 mm 3 m/s 763 mmHg 26%
20:00 +35°C° 0 mm 3 m/s 763 mmHg 26%
21:00 +34°C° 0 mm 3 m/s 764 mmHg 27%
22:00 +33°C° 0 mm 3 m/s 763 mmHg 24%
23:00 +31°C° 0 mm 3 m/s 763 mmHg 21%
Mostrar mais